Time,TemperatureF,DewpointF,PressureIn,WindDirection,WindDirectionDegrees,WindSpeedMPH,WindSpeedGustMPH,Humidity,HourlyPrecipIn,Conditions,Clouds,dailyrainin,SoftwareType,DateUTC
2013-02-04 00:01:00,18.0,16.0,29.91,ENE,62,6.0,12.0,91,0.00,,,0.00,,2013-02-04 06:01:00,
2013-02-04 00:11:00,18.0,16.0,29.91,ENE,62,6.0,12.0,91,0.00,,,0.00,,2013-02-04 06:11:00,
2013-02-04 00:21:00,17.0,15.0,29.91,NE,34,9.0,13.0,90,0.00,,,0.00,,2013-02-04 06:21:00,
2013-02-04 00:32:00,17.0,15.0,29.92,NNE,17,7.0,12.0,90,0.00,,,0.00,,2013-02-04 06:32:00,
2013-02-04 00:41:00,17.0,15.0,29.92,NNE,17,7.0,12.0,90,0.00,,,0.00,,2013-02-04 06:41:00,
2013-02-04 00:52:00,17.0,15.0,29.92,NE,46,5.0,10.0,90,0.00,,,0.00,,2013-02-04 06:52:00,
2013-02-04 01:02:00,16.0,14.0,29.93,NNE,33,5.0,10.0,90,0.00,,,0.00,,2013-02-04 07:02:00,
2013-02-04 01:11:00,16.0,14.0,29.93,NNE,33,5.0,10.0,90,0.00,,,0.00,,2013-02-04 07:11:00,
2013-02-04 01:21:00,16.0,14.0,29.93,North,5,6.0,11.0,90,0.00,,,0.00,,2013-02-04 07:21:00,
2013-02-04 01:31:00,16.0,14.0,29.93,NE,36,5.0,12.0,90,0.00,,,0.00,,2013-02-04 07:31:00,
2013-02-04 01:42:00,16.0,14.0,29.93,NE,36,5.0,12.0,90,0.00,,,0.00,,2013-02-04 07:42:00,
2013-02-04 01:52:00,16.0,14.0,29.93,NNE,30,6.0,15.0,90,0.00,,,0.00,,2013-02-04 07:52:00,
2013-02-04 02:01:00,16.0,14.0,29.93,NE,55,4.0,10.0,90,0.00,,,0.00,,2013-02-04 08:01:00,
2013-02-04 02:11:00,16.0,14.0,29.93,NE,55,4.0,10.0,90,0.00,,,0.00,,2013-02-04 08:11:00,
2013-02-04 02:21:00,16.0,14.0,29.94,NNE,29,4.0,10.0,90,0.00,,,0.00,,2013-02-04 08:21:00,
2013-02-04 02:31:00,15.0,12.0,29.94,NE,38,5.0,11.0,89,0.00,,,0.00,,2013-02-04 08:31:00,
2013-02-04 02:42:00,15.0,12.0,29.94,NE,38,5.0,11.0,89,0.00,,,0.00,,2013-02-04 08:42:00,
2013-02-04 02:52:00,15.0,13.0,29.95,NE,36,5.0,11.0,90,0.00,,,0.00,,2013-02-04 08:52:00,
2013-02-04 03:02:00,15.0,12.0,29.95,NW,320,5.0,11.0,89,0.00,,,0.00,,2013-02-04 09:02:00,
2013-02-04 03:11:00,15.0,12.0,29.95,NW,320,5.0,11.0,89,0.00,,,0.00,,2013-02-04 09:11:00,
2013-02-04 03:21:00,15.0,12.0,29.95,NNE,22,6.0,12.0,89,0.00,,,0.00,,2013-02-04 09:21:00,
2013-02-04 03:31:00,14.0,11.0,29.96,NNW,340,7.0,24.0,89,0.00,,,0.00,,2013-02-04 09:31:00,
2013-02-04 03:41:00,14.0,11.0,29.96,NNW,340,7.0,24.0,89,0.00,,,0.00,,2013-02-04 09:41:00,
2013-02-04 03:52:00,14.0,11.0,29.96,NNE,26,6.0,21.0,88,0.00,,,0.00,,2013-02-04 09:52:00,
2013-02-04 04:01:00,14.0,11.0,29.96,NNE,24,6.0,15.0,88,0.00,,,0.00,,2013-02-04 10:01:00,
2013-02-04 04:11:00,14.0,11.0,29.96,NNE,24,6.0,15.0,88,0.00,,,0.00,,2013-02-04 10:11:00,
2013-02-04 04:21:00,14.0,11.0,29.97,NNE,14,5.0,13.0,88,0.00,,,0.00,,2013-02-04 10:21:00,
2013-02-04 04:32:00,14.0,11.0,29.97,North,5,4.0,13.0,88,0.00,,,0.00,,2013-02-04 10:32:00,
2013-02-04 04:41:00,14.0,11.0,29.97,North,5,4.0,13.0,88,0.00,,,0.00,,2013-02-04 10:41:00,
2013-02-04 04:52:00,14.0,11.0,29.98,NNW,329,8.0,19.0,87,0.00,,,0.00,,2013-02-04 10:52:00,
2013-02-04 05:02:00,14.0,11.0,29.99,NNW,347,7.0,12.0,87,0.00,,,0.00,,2013-02-04 11:02:00,
2013-02-04 05:11:00,14.0,11.0,29.99,NNW,347,7.0,12.0,87,0.00,,,0.00,,2013-02-04 11:11:00,
2013-02-04 05:22:00,13.0,10.0,30.00,NNW,348,5.0,11.0,87,0.00,,,0.00,,2013-02-04 11:22:00,
2013-02-04 05:32:00,13.0,10.0,30.01,NNE,14,5.0,9.0,87,0.00,,,0.00,,2013-02-04 11:32:00,
2013-02-04 05:42:00,13.0,10.0,30.01,NNE,14,5.0,9.0,87,0.00,,,0.00,,2013-02-04 11:42:00,
2013-02-04 05:52:00,13.0,10.0,30.01,NNW,347,5.0,14.0,87,0.00,,,0.00,,2013-02-04 11:52:00,
2013-02-04 06:02:00,12.0,9.0,30.01,North,349,2.0,7.0,87,0.00,,,0.00,,2013-02-04 12:02:00,
2013-02-04 06:12:00,12.0,9.0,30.01,North,349,2.0,7.0,87,0.00,,,0.00,,2013-02-04 12:12:00,
2013-02-04 06:22:00,12.0,9.0,30.01,NNE,15,2.0,6.0,87,0.00,,,0.00,,2013-02-04 12:22:00,
2013-02-04 06:32:00,11.0,8.0,30.02,NNW,333,4.0,9.0,88,0.00,,,0.00,,2013-02-04 12:32:00,
2013-02-04 06:42:00,11.0,8.0,30.02,NNW,333,4.0,9.0,88,0.00,,,0.00,,2013-02-04 12:42:00,
2013-02-04 06:53:00,10.0,7.0,30.02,NNE,30,5.0,8.0,88,0.00,,,0.00,,2013-02-04 12:53:00,
2013-02-04 07:02:00,10.0,7.0,30.02,NNE,15,4.0,9.0,89,0.00,,,0.00,,2013-02-04 13:02:00,
2013-02-04 07:12:00,9.0,6.0,30.03,WNW,292,3.0,7.0,89,0.00,,,0.00,,2013-02-04 13:12:00,
2013-02-04 07:21:00,9.0,6.0,30.03,WNW,292,3.0,7.0,89,0.00,,,0.00,,2013-02-04 13:21:00,
2013-02-04 07:33:00,8.0,5.0,30.04,NNW,338,0.0,6.0,89,0.00,,,0.00,,2013-02-04 13:33:00,
2013-02-04 07:42:00,8.0,5.0,30.04,NNW,338,0.0,6.0,89,0.00,,,0.00,,2013-02-04 13:42:00,
2013-02-04 07:52:00,8.0,5.0,30.05,WNW,298,1.0,4.0,89,0.00,,,0.00,,2013-02-04 13:52:00,
2013-02-04 08:03:00,8.0,6.0,30.05,NNW,327,1.0,7.0,90,0.00,,,0.00,,2013-02-04 14:03:00,
2013-02-04 08:11:00,8.0,6.0,30.05,NNW,327,1.0,7.0,90,0.00,,,0.00,,2013-02-04 14:11:00,
2013-02-04 08:22:00,8.0,6.0,30.05,North,355,1.0,3.0,90,0.00,,,0.00,,2013-02-04 14:22:00,
2013-02-04 08:32:00,8.0,6.0,30.04,NNW,347,0.0,3.0,90,0.00,,,0.00,,2013-02-04 14:32:00,
2013-02-04 08:42:00,8.0,6.0,30.04,NNW,347,0.0,3.0,90,0.00,,,0.00,,2013-02-04 14:42:00,
2013-02-04 08:52:00,10.0,8.0,30.05,North,355,1.0,4.0,90,0.00,,,0.00,,2013-02-04 14:52:00,
2013-02-04 09:03:00,10.0,7.0,30.06,NW,304,1.0,3.0,88,0.00,,,0.00,,2013-02-04 15:03:00,
2013-02-04 09:12:00,10.0,7.0,30.06,NW,304,1.0,3.0,88,0.00,,,0.00,,2013-02-04 15:12:00,
2013-02-04 09:23:00,11.0,8.0,30.06,NNW,331,2.0,5.0,87,0.00,,,0.00,,2013-02-04 15:23:00,
2013-02-04 09:33:00,11.0,8.0,30.08,NW,315,2.0,7.0,86,0.00,,,0.00,,2013-02-04 15:33:00,
2013-02-04 09:43:00,11.0,8.0,30.08,NW,315,2.0,7.0,86,0.00,,,0.00,,2013-02-04 15:43:00,
2013-02-04 09:53:00,12.0,8.0,30.08,North,9,2.0,4.0,85,0.00,,,0.00,,2013-02-04 15:53:00,
2013-02-04 10:02:00,12.0,8.0,30.08,NE,55,3.0,9.0,84,0.00,,,0.00,,2013-02-04 16:02:00,
2013-02-04 10:11:00,12.0,8.0,30.08,NE,55,3.0,9.0,84,0.00,,,0.00,,2013-02-04 16:11:00,
2013-02-04 10:22:00,13.0,9.0,30.09,NNW,345,3.0,5.0,83,0.00,,,0.00,,2013-02-04 16:22:00,
2013-02-04 10:33:00,13.0,9.0,30.09,WNW,303,2.0,5.0,82,0.00,,,0.00,,2013-02-04 16:33:00,
2013-02-04 10:42:00,13.0,9.0,30.09,WNW,303,2.0,5.0,82,0.00,,,0.00,,2013-02-04 16:42:00,
2013-02-04 10:52:00,14.0,9.0,30.09,NE,51,3.0,6.0,81,0.00,,,0.00,,2013-02-04 16:52:00,
2013-02-04 11:02:00,13.0,8.0,30.08,NE,34,3.0,6.0,81,0.00,,,0.00,,2013-02-04 17:02:00,
2013-02-04 11:11:00,13.0,8.0,30.08,NE,34,3.0,6.0,81,0.00,,,0.00,,2013-02-04 17:11:00,
2013-02-04 11:21:00,14.0,9.0,30.09,NE,50,3.0,6.0,81,0.00,,,0.00,,2013-02-04 17:21:00,
2013-02-04 11:32:00,14.0,9.0,30.09,NW,318,1.0,4.0,81,0.00,,,0.00,,2013-02-04 17:32:00,
2013-02-04 11:42:00,14.0,9.0,30.09,NW,318,1.0,4.0,81,0.00,,,0.00,,2013-02-04 17:42:00,
2013-02-04 11:52:00,14.0,9.0,30.07,NW,313,0.0,5.0,81,0.00,,,0.00,,2013-02-04 17:52:00,
2013-02-04 12:03:00,15.0,10.0,30.06,ESE,120,2.0,5.0,81,0.00,,,0.00,,2013-02-04 18:03:00,
2013-02-04 12:11:00,15.0,10.0,30.06,ESE,120,2.0,5.0,81,0.00,,,0.00,,2013-02-04 18:11:00,
2013-02-04 12:22:00,15.0,10.0,30.06,ENE,62,1.0,4.0,79,0.00,,,0.00,,2013-02-04 18:22:00,
2013-02-04 12:32:00,16.0,11.0,30.04,NNW,347,1.0,4.0,79,0.00,,,0.00,,2013-02-04 18:32:00,
2013-02-04 12:42:00,16.0,11.0,30.04,NNW,347,1.0,4.0,79,0.00,,,0.00,,2013-02-04 18:42:00,
2013-02-04 12:52:00,17.0,11.0,30.04,WNW,294,1.0,5.0,77,0.00,,,0.00,,2013-02-04 18:52:00,
2013-02-04 13:02:00,18.0,12.0,30.04,NW,320,1.0,3.0,76,0.00,,,0.00,,2013-02-04 19:02:00,
2013-02-04 13:11:00,18.0,12.0,30.04,NW,320,1.0,3.0,76,0.00,,,0.00,,2013-02-04 19:11:00,
2013-02-04 13:22:00,18.0,11.0,30.04,NNE,17,2.0,5.0,73,0.00,,,0.00,,2013-02-04 19:22:00,
2013-02-04 13:31:00,18.0,11.0,30.05,NNE,24,2.0,6.0,74,0.00,,,0.00,,2013-02-04 19:31:00,
2013-02-04 13:42:00,18.0,11.0,30.05,NNE,24,2.0,6.0,74,0.00,,,0.00,,2013-02-04 19:42:00,
2013-02-04 13:52:00,19.0,12.0,30.04,NW,309,2.0,5.0,75,0.00,,,0.00,,2013-02-04 19:52:00,
2013-02-04 14:02:00,19.0,12.0,30.05,WNW,296,2.0,6.0,73,0.00,,,0.00,,2013-02-04 20:02:00,
2013-02-04 14:12:00,19.0,12.0,30.05,WNW,296,2.0,6.0,73,0.00,,,0.00,,2013-02-04 20:12:00,
2013-02-04 14:21:00,19.0,12.0,30.04,WNW,300,3.0,8.0,73,0.00,,,0.00,,2013-02-04 20:21:00,
2013-02-04 14:32:00,19.0,11.0,30.04,WNW,298,3.0,6.0,72,0.00,,,0.00,,2013-02-04 20:32:00,
2013-02-04 14:42:00,19.0,11.0,30.04,WNW,298,3.0,6.0,72,0.00,,,0.00,,2013-02-04 20:42:00,
2013-02-04 14:52:00,19.0,11.0,30.03,WNW,288,1.0,4.0,71,0.00,,,0.00,,2013-02-04 20:52:00,
2013-02-04 15:02:00,18.0,10.0,30.02,NNW,333,1.0,3.0,69,0.00,,,0.00,,2013-02-04 21:02:00,
2013-02-04 15:11:00,18.0,10.0,30.02,NNW,333,1.0,3.0,69,0.00,,,0.00,,2013-02-04 21:11:00,
2013-02-04 15:22:00,18.0,10.0,30.02,NNW,333,0.0,3.0,71,0.00,,,0.00,,2013-02-04 21:22:00,
2013-02-04 15:32:00,18.0,11.0,30.02,NNW,330,0.0,3.0,74,0.00,,,0.00,,2013-02-04 21:32:00,
2013-02-04 15:42:00,18.0,11.0,30.02,NNW,330,0.0,3.0,74,0.00,,,0.00,,2013-02-04 21:42:00,
2013-02-04 15:52:00,18.0,11.0,30.02,NNW,330,1.0,2.0,74,0.00,,,0.00,,2013-02-04 21:52:00,
2013-02-04 16:02:00,18.0,11.0,30.02,NNW,330,0.0,2.0,74,0.00,,,0.00,,2013-02-04 22:02:00,
2013-02-04 16:12:00,18.0,11.0,30.02,NNW,330,0.0,2.0,74,0.00,,,0.00,,2013-02-04 22:12:00,
2013-02-04 16:21:00,18.0,11.0,30.01,NNW,330,0.0,2.0,73,0.00,,,0.00,,2013-02-04 22:21:00,
2013-02-04 16:32:00,18.0,11.0,30.00,NNW,330,1.0,3.0,74,0.00,,,0.00,,2013-02-04 22:32:00,
2013-02-04 16:42:00,18.0,11.0,30.00,NNW,330,1.0,3.0,74,0.00,,,0.00,,2013-02-04 22:42:00,
2013-02-04 16:52:00,18.0,11.0,29.99,WSW,254,1.0,4.0,75,0.00,,,0.00,,2013-02-04 22:52:00,
2013-02-04 17:01:00,18.0,12.0,29.98,WSW,246,0.0,4.0,77,0.00,,,0.00,,2013-02-04 23:01:00,
2013-02-04 17:11:00,18.0,12.0,29.98,WSW,246,0.0,4.0,77,0.00,,,0.00,,2013-02-04 23:11:00,
2013-02-04 17:21:00,18.0,12.0,29.97,SSW,193,2.0,4.0,77,0.00,,,0.00,,2013-02-04 23:21:00,
2013-02-04 17:32:00,18.0,12.0,29.97,South,176,2.0,5.0,78,0.00,,,0.00,,2013-02-04 23:32:00,
2013-02-04 17:42:00,18.0,12.0,29.97,South,176,2.0,5.0,78,0.00,,,0.00,,2013-02-04 23:42:00,
2013-02-04 17:52:00,18.0,13.0,29.96,SW,234,1.0,6.0,79,0.00,,,0.00,,2013-02-04 23:52:00,
2013-02-04 18:01:00,18.0,13.0,29.98,SSW,202,1.0,5.0,79,0.00,,,0.00,,2013-02-05 00:01:00,
2013-02-04 18:11:00,18.0,13.0,29.98,SSW,202,1.0,5.0,79,0.00,,,0.00,,2013-02-05 00:11:00,
2013-02-04 18:22:00,18.0,13.0,29.98,SSW,202,0.0,3.0,80,0.00,,,0.00,,2013-02-05 00:22:00,
2013-02-04 18:31:00,17.0,12.0,29.96,SSW,202,0.0,1.0,82,0.00,,,0.00,,2013-02-05 00:31:00,
2013-02-04 18:42:00,17.0,12.0,29.96,SSW,202,0.0,1.0,82,0.00,,,0.00,,2013-02-05 00:42:00,
2013-02-04 18:52:00,16.0,12.0,29.95,SSW,198,0.0,3.0,83,0.00,,,0.00,,2013-02-05 00:52:00,
2013-02-04 19:01:00,16.0,12.0,29.94,SSW,195,1.0,3.0,84,0.00,,,0.00,,2013-02-05 01:01:00,
2013-02-04 19:11:00,16.0,12.0,29.94,SSW,195,1.0,3.0,84,0.00,,,0.00,,2013-02-05 01:11:00,
2013-02-04 19:22:00,16.0,12.0,29.93,SSW,195,2.0,2.0,84,0.00,,,0.00,,2013-02-05 01:22:00,
2013-02-04 19:32:00,16.0,12.0,29.93,SSW,194,1.0,3.0,85,0.00,,,0.00,,2013-02-05 01:32:00,
2013-02-04 19:42:00,16.0,12.0,29.93,SSW,194,1.0,3.0,85,0.00,,,0.00,,2013-02-05 01:42:00,
2013-02-04 19:52:00,17.0,13.0,29.92,South,177,1.0,3.0,85,0.00,,,0.00,,2013-02-05 01:52:00,
2013-02-04 20:01:00,17.0,13.0,29.92,South,188,0.0,4.0,85,0.00,,,0.00,,2013-02-05 02:01:00,
2013-02-04 20:11:00,17.0,13.0,29.92,South,188,0.0,4.0,85,0.00,,,0.00,,2013-02-05 02:11:00,
2013-02-04 20:22:00,18.0,14.0,29.91,SSE,156,2.0,5.0,85,0.00,,,0.00,,2013-02-05 02:22:00,
2013-02-04 20:32:00,18.0,14.0,29.90,SSE,159,2.0,9.0,84,0.00,,,0.00,,2013-02-05 02:32:00,
2013-02-04 20:41:00,18.0,14.0,29.90,SSE,159,2.0,9.0,84,0.00,,,0.00,,2013-02-05 02:41:00,
2013-02-04 20:52:00,19.0,15.0,29.90,SSE,163,4.0,9.0,84,0.00,,,0.00,,2013-02-05 02:52:00,
2013-02-04 21:02:00,19.0,15.0,29.90,SSE,164,2.0,6.0,84,0.00,,,0.00,,2013-02-05 03:02:00,
2013-02-04 21:11:00,19.0,15.0,29.90,SSE,164,2.0,6.0,84,0.00,,,0.00,,2013-02-05 03:11:00,
2013-02-04 21:21:00,20.0,16.0,29.90,South,178,3.0,7.0,85,0.00,,,0.00,,2013-02-05 03:21:00,
2013-02-04 21:32:00,20.0,16.0,29.90,WSW,255,2.0,8.0,85,0.00,,,0.00,,2013-02-05 03:32:00,
2013-02-04 21:42:00,20.0,16.0,29.90,WSW,255,2.0,8.0,85,0.00,,,0.00,,2013-02-05 03:42:00,
2013-02-04 21:52:00,21.0,17.0,29.91,South,175,3.0,18.0,85,0.00,,,0.00,,2013-02-05 03:52:00,
2013-02-04 22:01:00,21.0,17.0,29.89,SSE,161,4.0,8.0,84,0.00,,,0.00,,2013-02-05 04:01:00,
2013-02-04 22:11:00,21.0,17.0,29.89,SSE,161,4.0,8.0,84,0.00,,,0.00,,2013-02-05 04:11:00,
2013-02-04 22:21:00,21.0,17.0,29.89,SSE,161,4.0,8.0,84,0.00,,,0.00,,2013-02-05 04:21:00,
2013-02-04 22:32:00,21.0,17.0,29.89,SSE,161,4.0,8.0,84,0.00,,,0.00,,2013-02-05 04:32:00,
2013-02-04 22:42:00,21.0,17.0,29.89,SSE,161,4.0,8.0,84,0.00,,,0.00,,2013-02-05 04:42:00,
2013-02-04 22:52:00,22.0,18.0,29.88,South,172,3.0,10.0,85,0.00,,,0.00,,2013-02-05 04:52:00,
2013-02-04 23:02:00,22.0,18.0,29.87,SSW,200,2.0,8.0,86,0.00,,,0.00,,2013-02-05 05:02:00,
2013-02-04 23:11:00,22.0,18.0,29.87,SSW,200,2.0,8.0,86,0.00,,,0.00,,2013-02-05 05:11:00,
2013-02-04 23:21:00,23.0,20.0,29.86,SW,217,3.0,8.0,87,0.00,,,0.00,,2013-02-05 05:21:00,
2013-02-04 23:32:00,23.0,20.0,29.86,SSW,197,2.0,11.0,89,0.00,,,0.00,,2013-02-05 05:32:00,
2013-02-04 23:42:00,23.0,20.0,29.86,SSW,197,2.0,11.0,89,0.00,,,0.00,,2013-02-05 05:42:00,
2013-02-04 23:52:00,23.0,21.0,29.86,SW,215,3.0,9.0,90,0.00,,,0.00,,2013-02-05 05:52:00,